OBJECT G, 56749

Orbit data source: Space-Track

You're viewing an Uncataloged Satellite

Recently launched and/or uncataloged satellites may have evolving metadata. Metadata may include but not limited to: Owner, Maufacturer, Bus, Motor, and Mission.

OBJECT G, 56749 is a satellite owned by Lumir Inc. (KR) in SSO that was launched on Thu, 25 May 2023 UTC via an NURI launch vehicle from the Naro Space Center, South Korea (NSC). Unknown objects in Earth's orbit typically refer to objects detected orbiting the Earth but have not yet been identified or cataloged. These objects could be anything from previously untracked satellites, spent rocket stages, debris from satellite collisions, or even natural meteoroids temporarily captured by Earth's gravity.

Loading next visibility...
Identifier
56749, 2023-072G
Orbit
SSO
Last TLE update
5 hours ago
Origin
Flag of KRLUMIR (KR / SKOR)
Manufacturer
Lumir Inc.
Mission
Operational Commercial Technology
Bus & Motor
CUBESAT 6U, Unknown motor
Mass
7 kg wet, 7 kg dry
Launch date (UTC)
2023-05-25 (2 years ago)
Launch vehicle
NURI
Launch site
Naro Space Center, South Korea (NSC)
Object type
Unknown
Shape & HBR
Box, 0.3 m
Radar Cross Section
0.035 m², Medium (>0.1 m² and < 1m²)

Expand to show TLE details & history

TLE from 5 hours ago
0 OBJECT G
1 56749U 23072G   25127.49096293  .00017327  00000-0  58690-3 0  9995
2 56749  97.5220 320.2666 0005706  13.0086 347.1301 15.30626869108058
Epoch: 2025-05-07T11:46Z
Definitive object data (Epoch: 2025-05-07T11:46:59.197Z)
Latitude
0.00003°
Longitude
-82.05511°
Altitude
473.23 km
Speed
7.631 km/s
True Right ascension
21h 21m 03s
True Declination
0° 00' 00"
Sunlit
Object was in daylight at TLE epoch
Visualization TLE readout
Latitude
73.17782°
Longitude
-107.58499°
Altitude
484.704 km
Speed
7.631 km/s
Apparent Right ascension
14h 25m 27s
Apparent Declination
26° 49' 60"
Sunlit
Object is in daylight
Visualization observer readout
Local Sidereal Time
00:51:34
Azimuth
337.814° N
Elevation
-19.763°
Doppler factor
1
Orbital elements
Apogee altitude
474.806 km
Perigee altitude
466.989 km
Semi-major axis
6,849.035 km
Eccentricity
0.0005706
Inclination
97.522°
RAAN
320.2666°
Arg. of periapsis
13.0086°
True anomaly
347.11553°
Mean anomaly
347.1301°
Eccentric anomaly
347.12281°
Mean motion
3.82912 °/min
BSTAR
0.0005869
Orbital period
94.02 mins
Loading maneuver chart data...
Loading SW <> Apogee altitude chart data...
Loading historical data...
Loading historical data...
Loading historical data...
Loading historical data...
Loading historical data...
Loading historical data...
Loading historical data...

OBJECT G Visibility forecast

Observer location: undefined°, undefined°

Span
Click to sort rows by Start time (UTC) header in descending order
Start Az.
Max El. time (UTC)
Max El. Az.
Max El.
End time (UTC)
End Az.
4 mins2025-05-08 00:54:55.280Z54.068° ENE2025-05-08 00:56:55.280Z94.598° ESE18.758°2025-05-08 00:58:55.280Z135.558° SSE
5 mins2025-05-08 13:01:55.280Z184.133° SSW2025-05-08 13:03:55.280Z292.851° NW41.115°2025-05-08 13:06:55.280Z341.536° N
|